Regional Weather Roundup
Issued by NWS Boston, MA

Current Version | Previous Version | Text Only | Print | Product List | Glossary Off
Versions: 1 2 3 4 5 6 7 8 9 10 11 12 13 14 15 16 17 18 19 20 21 22 23 24 25 26 27 28 29 30 31 32 33 34 35 36 37 38 39 40 41 42 43 44 45 46 47 48 49 50
080 ASUS41 KBOX 222210 RWRBOX REGIONAL WEATHER ROUNDUP NATIONAL WEATHER SERVICE TAUNTON MA 600 PM EDT MON MAY 22 2017 NOTE: "FAIR" INDICATES FEW OR NO CLOUDS BELOW 12,000 FEET WITH NO SIGNIFICANT WEATHER AND/OR OBSTRUCTIONS TO VISIBILITY. MAZALL-222300- EASTERN MASSACHUSETTS CITY SKY/WX TMP DP RH WIND PRES REMARKS BOSTON LGT RAIN 53 49 86 S10 30.06F BEVERLY LGT RAIN 53 50 89 SE9 30.05F LAWRENCE LGT RAIN 53 49 86 E3 30.07F BEDFORD CLOUDY 52 46 80 S10 30.04F BLUE HILL N/A 49 47 93 S12 30.03F NORWOOD CLOUDY 53 49 86 S8 30.05F MARSHFIELD CLOUDY 52 52 100 VRB5 30.07S PLYMOUTH LGT RAIN 51 49 92 SE3 30.07F TAUNTON LGT RAIN 52 49 89 S5 30.06F NEW BEDFORD LGT RAIN 53 51 93 SE9 30.05F $$ MAZALL-222300- CAPE COD AND THE ISLANDS CITY SKY/WX TMP DP RH WIND PRES REMARKS FALMOUTH N/A N/A N/A N/A MISG N/A HYANNIS LGT RAIN 53 51 93 S9 30.06F FOG CHATHAM LGT RAIN 52 51 97 S8 30.10F PROVINCETOWN LGT RAIN 52 49 89 S8 30.08F NANTUCKET LGT RAIN 52 49 89 SE10 30.10F MARTHAS VNYRD LGT RAIN 54 51 90 S12 30.06F FOG $$ MAZALL-222300- CENTRAL AND WESTERN MASSACHUSETTS CITY SKY/WX TMP DP RH WIND PRES REMARKS WORCESTER LGT RAIN 52 46 82 S9 30.05S FITCHBURG CLOUDY 52 50 93 CALM 30.04F FOG ORANGE LGT RAIN 51 50 96 SE5 30.02F FOG SPRINGFIELD LGT RAIN 53 51 93 CALM 30.00F FOG WESTFIELD RAIN 52 52 100 CALM 30.01F FOG NORTH ADAMS LGT RAIN 53 50 89 E8 29.98F FOG PITTSFIELD LGT RAIN 52 50 93 SE6 29.97F FOG $$ RIZALL-222300- RHODE ISLAND CITY SKY/WX TMP DP RH WIND PRES REMARKS PROVIDENCE LGT RAIN 54 53 97 S9 30.06F NEWPORT LGT RAIN 53 53 100 SE12 30.04F BLOCK ISLAND LGT RAIN 54 54 100 SE14 30.03F SMITHFIELD LGT RAIN 50 50 100 S5 30.04F WESTERLY LGT RAIN 54 53 97 SE8 30.04F FOG $$ CTZALL-222300- CONNECTICUT CITY SKY/WX TMP DP RH WIND PRES REMARKS BRADLEY INTL LGT RAIN 53 52 96 E3 30.02F FOG HARTFORD LGT RAIN 54 53 97 CALM 30.01F FOG BRIDGEPORT LGT RAIN 56 54 93 E12 30.00F FOG DANBURY RAIN 54 54 100 E6 30.00F FOG GROTON RAIN 54 52 93 SE8 30.02F FOG NEW HAVEN CLOUDY 55 54 96 E8 30.00F FOG CHESTER LGT RAIN 54 54 100 SE6 30.01F MERIDEN LGT RAIN 54 54 100 CALM 30.00F FOG WILLIMANTIC LGT RAIN 54 52 93 VRB3 30.03F FOG OXFORD LGT RAIN 54 48 82 SE5 30.02F VSB 1 $$ MEZ002-015-021-024-NHZ003-005-008-011-012-014-VTZ005-008-222300- NORTHERN NEW ENGLAND CITY SKY/WX TMP DP RH WIND PRES REMARKS PORTLAND ME RAIN 49 47 93 S7 30.09S FOG BANGOR ME CLOUDY 54 40 59 S14G22 30.07F CONCORD NH LGT RAIN 49 47 93 E3 30.05F FOG MANCHESTER NH LGT RAIN 50 47 89 SE6 30.04F FOG NASHUA NH LGT RAIN 51 50 96 E6 30.05F FOG PORTSMOUTH NH CLOUDY 49 48 95 SE9 30.06F FOG JAFFREY NH CLOUDY 49 48 97 S6 30.03F KEENE NH LGT RAIN 52 48 86 S5 30.02F BURLINGTON VT CLOUDY 56 52 86 S9 29.92F MT. WASHINGTON LGT RAIN 41 41 100 W35 N/A VSB 1/16WCI 29 $$ NYZ052-076-222300- EASTERN NEW YORK CITY SKY/WX TMP DP RH WIND PRES REMARKS ALBANY CLOUDY 57 53 86 S9 29.96S NEW YORK CITY LGT RAIN 62 59 90 S7 29.96F FOG $$ ANZALL-222300- MARINE OBSERVATIONS STATION/POSITION TIME TEMP WIND PRES VSBY WAVE AIR SEA DIR/SP/G HT/PER (UTC) (F) (DEG/KT/KT) (MB) (MI) (FT/S) BOSTON BUOY 2150 53 54 160/ 16/ 17 1017.2F 2/ 3 BUZZARDS BAY 2200 53 150/ 18/ 20 1017.6F NANTUCKET SOUND 2150 54 1018.7F 1/ 3 MASS BAY-STELLWA 2104 53 54 160/ 14/ 16 1017.9F 2/ 3 ISLE OF SHOALS 2200 48 110/ 15/ 15 1017.9F S OF BLOCK IS 2155 53 N/A 2/ 4 $$ ......................KEY......................... SKY/WX - SKY CONDITION/PRESENT WEATHER TMP - TEMPERATURE IN FAHRENHEIT DWPT - DEWPOINT IN FAHRENHEIT RH - RELATIVE HUMIDITY IN PERCENT WIND - DIRECTION AND SPEED IN MPH PRES - MEAN SEA LEVEL PRESSURE IN INCHES OF HG WCI - WIND CHILL INDEX VSB - VISIBILITY IN MILES HX - HEAT INDEX TC - TEMPERATURE IN CELSIUS VRB - VARIABLE WIND DIRECTION N/A - NOT AVAILABLE

USA.gov is the U.S. government's official web portal to all federal, state and local government web resources and services.